Погода в Фудзи

Япония     35°13′59″N   138°43′37″E
темп.,
°C
ветер,
м/с
пор.,
м/с
влажн.,
%
обл.,
%
осадки,
мм/ч
давл.,
гПа
погр.,
м
20 июня, вс
вс2000:00+16с2296100 4.4 100059
03:00+17ссв2292100 5.8 99839
06:00+17ссв1192100 0.2 99828
09:00+22ююз117954 0.3 999579
12:00+23ююз327482 0.2 999699
15:00+23ююв227543 0.7 999728
18:00+21вюв018799 0.5 1000217
21:00+19св2290100 0.7 100238
21 июня, пн
пн2100:00+17ссв229244 0.6 100250
03:00+17ссв229170 1.3 100376
06:00+17св238962 0.1 1005123
09:00+21ююв2264100 0.1 10051032
12:00+21ю327286 0.4 1006887
15:00+18ююз339098 2.2 1006504
18:00+17ююз229786 1.0 1008230
21:00+17ююз129997 1.4 1008170
22 июня, вт
вт2200:00+16ююз119999 0.4 1008123
03:00+16ю1198100 0.5 100881
06:00+17св1192100 0.0 1008101
09:00+19в2282100 0.1 1009528
12:00+20ю2283100 1.8 1009683
15:00+18ююз2294100 4.5 1009377
18:00+17ююз1296100 1.4 1010242
21:00+17в1199100 3.0 101195
23 июня, ср
ср2300:00+16в2398100 1.5 1011115
03:00+15св1193100 1.9 101019
06:00+16св2391100 0.0 1011115
09:00+21в346587 0.0 10101082
12:00+22в3455100 0.1 10101395
15:00+21вюв2365100 0.3 1010939
18:00+18в1293100 1.5 1011140
21:00+16всв2297100 2.3 1012103
24 июня, чт
чт2400:00+16всв2396100 0.4 1011135
03:00+16св2294100 0.4 101170
06:00+16св239296 0.0 1011103
09:00+21вюв2366100 0.0 1010901
12:00+22вюв2361100 0.0 10101140
15:00+23вюв236015 0.0 10101097
18:00+20всв35754 0.0 1010472
21:00+16ссв468374 0.0 1011149